Location: Newark
(30.2328°N, 54.2869°E)
Time: 19:28:04
(UTC+00:00)

Hubble Space Telescope - Pass Details

Date: 30 July 2019
Orbit: 536 x 540 km, 28.5° (Epoch: 17 August)

Event Time Altitude Azimuth Distance (km) Brightness Sun altitude
Exits shadow 00:14:41 36° 221° (SW) 856 1.3 -17.0°
Maximum altitude 00:15:57 51° 169° (S) 675 1.1 -16.8°
Drops below altitude 10° 00:19:58 10° 93° (E) 1,785 4.2 -16.1°
Sets 00:22:16 0° 88° (E) 2,676 5.4 -15.7°
